Location: Catacaguana
(10.4120°N, 66.7591°W)
Time: 06:32:37
(UTC+00:00)

SeaSat 1 - Pass Details

Date: 27 May 2022
Orbit: 743 x 747 km, 108.0° (Epoch: 26 June)

Event Time Altitude Azimuth Distance (km) Brightness Sun altitude
Rises 07:28:02 0° 27° (NNE) 3,178 6.5 -34.8°
Reaches altitude 10° 07:30:19 10° 31° (NNE) 2,255 5.6 -34.4°
Enters shadow 07:33:22 37° 48° (NE) 1,147 3.8 -33.8°
